Wind_Speed
26 24 23 23 23 23 24 25 27 26 26 26 27 28 29 29 31 30 29 29 28 27 25 23 22 22 23 23 23 22 22 23 23 23 23 23 23 24 24 24 24 23 23 22
24 22 20 19 19 20 19 20 22 23 24 26 27 28 28 29 30 30 29 28 27 26 25 24 23 23 24 24 23 23 24 24 25 24 23 23 23 24 24 25 25 25 25 24
19 19 16 15 16 16 17 17 19 19 20 22 24 24 24 24 25 26 26 25 24 24 23 23 23 23 23 23 22 23 23 24 24 23 23 23 23 23 24 24 25 25 26 26
14 15 14 14 14 14 15 15 15 15 16 17 17 18 17 17 17 17 19 19 20 20 20 21 21 22 22 22 22 23 23 23 23 22 23 23 23 23 23 24 24 25 26 26
9 13 14 16 15 14 13 13 12 12 12 11 11 12 11 9 8 9 10 12 13 14 15 17 17 18 20 21 22 22 22 22 22 23 23 23 23 23 23 23 23 24 25 26
11 12 15 17 16 15 13 13 12 11 11 10 8 7 6 4 3 4 5 6 8 10 13 15 16 18 19 20 21 21 22 22 22 23 23 23 23 24 24 24 24 25 25 25
15 14 16 17 18 17 17 16 14 13 11 9 6 5 3 2 2 3 5 7 9 11 12 14 16 17 18 19 19 20 21 21 21 21 21 21 21 22 23 24 25 26 27 27
17 17 17 18 19 21 19 17 15 14 11 7 5 3 3 3 3 4 6 8 10 11 12 13 14 15 16 16 18 18 19 19 18 18 18 18 19 20 22 24 26 27 28 29
17 18 18 19 22 22 19 18 16 13 10 7 5 3 3 3 5 6 7 10 11 11 11 11 12 13 14 16 16 16 16 16 15 15 15 16 18 19 21 23 25 27 28 29
17 19 19 18 21 21 20 19 17 13 10 7 5 4 4 5 6 7 9 11 11 11 11 11 12 13 14 15 15 14 14 13 12 13 14 15 16 17 19 21 22 23 25 26
17 19 17 18 19 19 18 18 16 12 10 8 5 4 5 5 6 8 10 11 11 11 11 11 12 13 14 14 13 12 11 10 11 12 13 14 15 16 16 16 15 16 17 20
14 18 18 17 18 17 19 18 15 12 10 7 5 4 4 5 6 8 9 11 11 12 12 11 12 12 12 12 11 10 9 10 11 11 12 13 14 14 14 14 10 7 7 10
10 15 18 17 18 17 18 17 15 12 10 7 5 4 4 4 6 8 9 10 12 12 12 12 12 11 11 11 10 9 9 10 11 11 12 12 13 13 13 12 10 6 2 3
6 11 15 17 16 17 15 17 15 13 11 8 5 4 3 4 6 8 9 11 12 12 13 12 11 10 10 9 9 9 9 10 11 11 11 12 12 12 12 11 10 7 4 2
5 9 13 16 16 16 16 15 16 14 12 9 6 4 4 5 6 8 10 11 12 12 12 11 11 10 10 9 9 9 10 10 10 11 11 11 11 11 11 10 9 7 5 3
5 7 12 15 15 16 17 17 17 16 14 11 8 6 5 5 7 8 10 11 12 12 12 11 10 10 10 10 9 9 10 10 10 9 9 9 9 10 10 9 8 7 6 5
6 7 12 15 16 17 18 18 19 18 16 13 10 7 5 5 6 8 9 10 10 11 10 10 10 10 10 10 10 10 10 10 9 9 9 9 9 9 9 9 9 8 7 6
7 9 12 15 17 17 18 19 20 20 18 16 12 9 6 4 5 7 8 9 9 10 9 9 9 10 10 11 11 11 10 10 10 10 10 10 10 10 10 10 9 9 8 7
10 11 13 15 17 18 18 19 21 21 20 17 14 11 7 4 4 6 7 7 8 8 7 8 9 10 11 11 11 11 11 11 11 12 12 12 12 12 12 12 12 11 10 10
12 12 15 16 17 19 19 20 22 22 21 18 16 12 9 5 3 4 5 6 6 6 6 7 8 9 11 12 12 11 11 11 12 12 12 13 13 13 13 14 13 13 12 12
15 13 15 18 19 20 21 22 22 23 22 20 17 14 11 7 4 3 3 4 4 4 5 5 6 8 9 10 11 11 11 12 12 12 13 13 14 14 14 15 15 15 14 14
19 14 15 19 20 21 22 24 25 25 24 22 19 16 13 10 7 5 3 2 2 3 3 4 5 6 8 8 9 10 11 12 12 13 13 14 15 16 16 16 16 17 17 17
22 17 15 19 21 22 23 25 26 26 25 23 20 18 15 12 10 8 5 2 1 1 2 2 3 4 6 7 8 9 10 11 12 13 14 14 15 16 16 17 17 18 18 18
24 20 16 18 21 23 24 26 28 28 27 25 22 19 17 15 13 11 8 5 2 1 1 1 2 3 4 6 7 8 10 11 12 13 14 14 14 15 16 16 16 17 17 17
25 23 19 18 21 23 26 28 30 31 29 26 23 21 20 18 16 14 11 8 5 3 3 2 2 3 4 5 7 8 10 11 11 12 13 13 14 15 15 15 15 15 15 15
26 25 22 20 22 25 27 30 33 34 32 28 25 24 23 21 19 17 14 10 8 6 5 5 4 5 5 6 7 7 8 8 9 9 10 11 12 13 13 14 14 14 13 13
28 28 25 22 22 26 28 31 35 36 35 31 28 26 25 24 22 20 17 13 10 8 7 7 7 7 7 7 7 7 6 6 6 7 7 8 9 10 11 11 11 12 12 12
Wind_Direction
255 259 256 254 252 256 255 251 254 258 265 269 272 271 270 268 269 270 271 270 270 271 272 273 276 280 282 287 288 285 282 280 281 282 281 280 277 274 270 266 264 262 261 259
251 253 255 254 250 251 252 252 259 265 271 275 277 276 275 271 269 269 268 267 266 266 267 269 275 279 282 285 286 283 281 282 284 285 283 280 278 273 269 264 261 259 258 257
244 243 246 246 245 250 256 259 264 268 273 278 281 283 281 277 272 267 263 262 263 263 265 268 273 277 281 284 285 284 284 285 286 285 283 281 278 273 268 263 260 258 256 255
237 227 230 236 237 243 252 258 259 263 270 280 288 292 291 286 277 267 259 257 258 261 264 268 273 277 280 284 287 288 287 287 287 285 283 281 277 273 269 264 259 256 255 254
220 212 221 228 228 232 241 245 248 253 261 270 286 295 295 292 279 262 250 248 251 258 265 271 276 280 284 288 291 291 291 290 289 287 284 281 277 274 270 266 260 256 254 253
214 215 225 226 223 225 227 229 233 234 236 248 268 277 287 283 268 255 248 251 258 267 274 279 283 287 290 292 293 293 293 293 291 289 286 282 277 273 269 266 262 258 255 253
224 221 223 223 218 216 218 219 221 220 227 244 257 266 269 262 261 272 275 277 280 282 284 286 288 290 293 295 296 297 298 297 295 292 289 285 281 275 271 268 265 261 258 256
238 230 214 210 207 211 215 214 212 213 228 240 240 246 256 266 280 289 290 291 291 290 290 291 293 296 299 301 304 305 304 303 300 297 295 293 289 284 278 273 269 264 260 256
251 238 220 209 207 207 213 217 213 218 232 236 238 251 268 281 292 298 301 303 301 299 298 300 303 306 308 311 313 314 313 310 308 307 307 304 299 294 288 281 274 267 260 255
253 241 233 221 208 207 212 213 214 221 230 232 241 259 276 290 298 303 307 310 309 308 307 308 310 313 316 318 320 320 318 316 315 317 318 317 313 309 302 295 283 269 258 251
253 242 235 222 211 208 210 212 217 219 222 230 239 259 281 295 305 310 315 318 316 314 313 314 316 319 322 324 324 323 324 325 327 328 329 329 329 326 322 316 301 278 258 246
252 240 236 225 216 213 214 214 214 217 220 225 237 261 284 303 314 320 323 324 323 321 320 320 322 324 326 326 327 328 331 335 336 337 339 342 343 341 340 342 337 310 259 239
257 240 233 228 225 223 217 214 216 216 216 220 230 255 283 307 318 326 331 332 330 327 325 325 325 327 328 329 331 333 337 339 340 340 342 345 349 354 356 1 5 1 341 223
271 241 234 231 231 226 220 215 215 217 216 218 228 252 281 312 325 333 340 341 339 335 332 332 333 334 333 334 335 337 340 341 342 342 342 346 352 358 4 8 14 25 43 76
294 240 234 235 238 228 222 219 218 219 217 220 231 253 280 313 330 340 346 347 345 342 341 341 343 343 343 342 342 343 344 345 344 344 346 350 356 3 10 15 22 30 41 60
304 241 232 236 238 231 228 226 224 220 218 222 230 251 279 313 333 341 347 349 349 349 348 348 350 351 352 353 353 352 351 350 349 348 351 357 5 11 19 24 29 36 42 50
300 253 236 236 240 239 235 230 224 220 218 222 234 253 274 306 331 339 345 350 354 355 355 355 356 359 0 3 5 6 6 4 4 6 8 13 19 25 31 35 39 44 49 53
287 252 239 237 241 241 238 231 224 221 219 224 235 251 264 291 325 335 343 351 356 359 0 360 1 6 11 16 19 20 22 24 28 30 32 35 39 42 45 47 48 51 53 55
291 254 240 235 235 236 238 232 224 220 220 226 239 248 252 268 307 326 340 349 356 3 6 6 8 15 22 27 28 31 37 42 46 48 50 52 54 55 56 57 59 60 60 59
303 263 244 237 233 232 234 230 225 222 222 227 235 240 242 244 273 307 330 345 359 9 13 15 19 25 32 36 40 45 51 57 61 63 64 64 64 65 66 67 67 67 66 65
316 278 250 238 233 230 230 229 226 222 221 225 232 236 233 226 233 263 306 334 358 15 23 27 32 39 44 48 51 56 63 68 72 73 73 73 73 73 72 72 70 69 67 65
323 294 260 241 233 229 226 225 223 221 221 225 229 230 224 217 214 222 245 306 354 21 34 40 46 52 55 59 62 67 73 77 79 78 77 76 75 74 74 73 72 70 68 67
324 305 272 246 235 229 224 222 221 219 219 221 223 222 218 213 211 212 217 237 297 31 55 57 61 66 69 71 74 78 81 82 80 78 76 75 74 73 72 71 71 69 68 66
321 311 285 253 237 230 223 219 217 216 216 218 218 216 214 211 209 208 210 216 228 221 162 118 98 93 92 89 88 88 87 84 80 77 75 73 73 73 73 72 71 69 68 66
314 310 294 262 241 230 223 217 214 214 215 215 215 214 212 210 208 207 208 212 218 218 200 179 160 136 123 115 108 102 97 91 85 80 76 74 73 72 71 70 68 66 63 60
305 306 296 271 245 232 224 217 213 212 213 214 214 214 212 210 207 206 208 209 213 214 205 195 183 164 148 139 130 121 111 102 93 84 77 73 69 67 65 63 61 58 55 51
298 299 295 276 251 234 225 218 213 212 212 213 213 213 212 210 208 207 208 209 212 215 210 202 192 180 168 161 154 144 132 118 103 89 77 69 64 61 59 56 54 51 48 44
Height
5755 5756 5757 5759 5761 5763 5765 5766 5768 5769 5771 5772 5773 5773 5774 5775 5775 5776 5777 5778 5778 5779 5779 5779 5778 5778 5777 5776 5775 5773 5771 5770 5769 5767 5766 5764 5763 5762 5761 5760 5760 5760 5761 5761
5748 5750 5751 5754 5756 5757 5759 5761 5763 5765 5766 5766 5766 5765 5766 5766 5766 5767 5768 5769 5770 5771 5772 5772 5772 5771 5771 5770 5768 5767 5765 5764 5762 5761 5759 5757 5756 5755 5754 5753 5753 5753 5754 5754
5740 5744 5746 5749 5751 5753 5754 5756 5758 5760 5761 5760 5759 5759 5759 5758 5758 5759 5760 5761 5763 5765 5766 5766 5766 5765 5764 5763 5762 5761 5759 5757 5755 5754 5752 5750 5749 5748 5747 5746 5746 5746 5746 5747
5735 5740 5743 5747 5747 5749 5751 5752 5754 5755 5755 5755 5755 5754 5753 5753 5752 5753 5754 5756 5758 5759 5760 5761 5760 5760 5759 5757 5756 5754 5752 5750 5748 5747 5745 5743 5741 5740 5739 5739 5739 5739 5739 5740
5732 5736 5739 5741 5742 5745 5748 5749 5750 5751 5752 5753 5752 5752 5751 5751 5750 5751 5752 5753 5754 5755 5756 5756 5755 5754 5753 5752 5750 5748 5746 5743 5741 5739 5737 5736 5734 5733 5732 5731 5731 5731 5731 5732
5729 5732 5735 5736 5739 5741 5745 5746 5747 5748 5750 5750 5751 5751 5751 5751 5751 5751 5751 5752 5753 5753 5753 5752 5751 5750 5748 5746 5744 5742 5739 5737 5734 5732 5730 5728 5726 5725 5724 5723 5723 5723 5723 5724
5723 5726 5729 5732 5735 5739 5742 5744 5744 5746 5747 5748 5749 5750 5751 5751 5751 5751 5751 5752 5751 5751 5750 5749 5747 5746 5744 5741 5739 5736 5733 5730 5728 5725 5723 5721 5719 5717 5716 5715 5715 5715 5715 5715
5719 5720 5724 5726 5730 5734 5736 5739 5741 5743 5745 5747 5748 5750 5750 5751 5751 5751 5751 5750 5750 5748 5747 5745 5744 5742 5739 5737 5734 5731 5728 5725 5722 5719 5717 5715 5712 5710 5709 5707 5706 5705 5705 5706
5715 5717 5717 5720 5725 5729 5733 5736 5739 5742 5744 5746 5748 5749 5749 5750 5750 5750 5749 5749 5747 5746 5744 5742 5740 5738 5735 5732 5729 5726 5723 5720 5717 5714 5712 5709 5706 5703 5701 5698 5696 5695 5695 5696
5711 5713 5715 5718 5722 5727 5732 5735 5738 5741 5743 5745 5747 5748 5748 5749 5749 5748 5748 5747 5745 5743 5741 5739 5737 5734 5731 5728 5725 5722 5719 5716 5714 5711 5708 5705 5701 5697 5693 5689 5686 5684 5684 5686
5709 5712 5715 5718 5721 5726 5730 5733 5737 5740 5742 5744 5746 5747 5748 5748 5747 5747 5746 5745 5743 5741 5739 5736 5734 5731 5728 5725 5722 5719 5716 5713 5711 5708 5704 5701 5697 5693 5688 5683 5678 5676 5676 5677
5708 5710 5714 5717 5721 5725 5729 5733 5736 5739 5742 5744 5745 5746 5746 5746 5746 5745 5744 5742 5741 5739 5736 5734 5731 5728 5725 5722 5719 5717 5714 5711 5708 5705 5702 5698 5694 5690 5685 5681 5676 5673 5672 5673
5708 5710 5714 5717 5721 5725 5728 5732 5735 5738 5741 5743 5744 5745 5745 5745 5744 5743 5742 5740 5738 5736 5734 5731 5728 5725 5722 5720 5717 5714 5712 5709 5706 5703 5700 5697 5693 5689 5685 5681 5677 5674 5673 5673
5708 5711 5714 5717 5721 5724 5727 5731 5734 5737 5740 5742 5743 5744 5744 5744 5743 5741 5740 5738 5736 5734 5731 5729 5726 5723 5720 5717 5715 5712 5709 5707 5704 5701 5699 5696 5693 5689 5686 5682 5679 5676 5675 5675
5709 5711 5713 5717 5720 5723 5727 5730 5733 5736 5739 5741 5742 5743 5743 5742 5741 5740 5738 5736 5734 5732 5729 5727 5724 5721 5718 5716 5713 5710 5708 5705 5703 5700 5698 5695 5692 5689 5686 5683 5681 5679 5678 5677
5710 5711 5713 5716 5720 5723 5726 5729 5731 5734 5737 5739 5740 5741 5741 5741 5740 5738 5736 5734 5732 5730 5728 5725 5723 5720 5717 5714 5712 5709 5707 5704 5702 5699 5697 5695 5692 5690 5687 5685 5683 5681 5680 5679
5710 5711 5712 5715 5718 5721 5724 5726 5729 5732 5735 5737 5739 5739 5740 5739 5739 5737 5736 5734 5731 5729 5727 5725 5722 5720 5717 5714 5711 5709 5706 5704 5701 5699 5697 5695 5692 5690 5688 5686 5684 5683 5682 5681
5710 5710 5711 5713 5715 5718 5721 5724 5726 5729 5732 5735 5736 5737 5738 5738 5738 5737 5735 5733 5731 5729 5727 5725 5723 5720 5717 5714 5712 5709 5707 5704 5702 5700 5698 5696 5694 5692 5690 5688 5686 5685 5684 5683
5708 5707 5708 5709 5712 5715 5718 5721 5723 5726 5729 5732 5734 5736 5736 5737 5737 5736 5735 5733 5731 5729 5727 5725 5723 5720 5718 5715 5713 5711 5708 5706 5704 5702 5700 5698 5696 5694 5692 5691 5689 5687 5686 5685
5704 5704 5704 5705 5707 5710 5714 5717 5720 5723 5726 5729 5731 5733 5734 5735 5736 5736 5735 5733 5731 5729 5728 5726 5724 5721 5719 5717 5715 5713 5711 5709 5707 5705 5703 5701 5699 5698 5696 5694 5693 5691 5689 5688
5701 5700 5700 5701 5703 5705 5709 5712 5716 5719 5723 5726 5728 5731 5732 5733 5734 5734 5734 5733 5732 5730 5728 5726 5725 5723 5721 5719 5717 5716 5714 5712 5710 5709 5707 5705 5703 5702 5700 5698 5696 5695 5693 5692
5697 5695 5695 5696 5698 5700 5703 5707 5711 5715 5719 5722 5725 5727 5729 5731 5732 5733 5733 5733 5731 5730 5728 5727 5726 5725 5723 5722 5720 5719 5717 5716 5714 5712 5711 5709 5707 5706 5704 5702 5701 5699 5697 5695
5693 5691 5690 5691 5693 5695 5698 5702 5706 5710 5714 5718 5721 5724 5726 5728 5730 5731 5732 5732 5731 5730 5729 5728 5727 5726 5725 5724 5723 5722 5720 5719 5717 5716 5715 5713 5711 5709 5708 5706 5705 5703 5701 5700
5689 5686 5685 5686 5687 5689 5692 5696 5700 5705 5709 5713 5717 5720 5723 5725 5727 5729 5730 5730 5730 5729 5729 5728 5728 5727 5726 5726 5725 5724 5723 5722 5721 5719 5718 5717 5715 5713 5712 5710 5709 5707 5705 5704
5684 5682 5680 5680 5682 5684 5686 5690 5694 5699 5704 5708 5712 5716 5719 5722 5724 5726 5727 5728 5729 5729 5728 5728 5728 5727 5727 5727 5726 5726 5725 5724 5724 5723 5722 5720 5719 5717 5715 5714 5712 5711 5709 5707
5679 5676 5674 5674 5675 5678 5680 5683 5688 5693 5698 5703 5707 5711 5714 5718 5720 5723 5725 5726 5727 5727 5727 5727 5727 5727 5727 5727 5727 5727 5727 5726 5726 5725 5724 5723 5722 5720 5718 5717 5715 5713 5712 5710
5672 5669 5668 5667 5668 5671 5673 5676 5681 5686 5691 5697 5701 5706 5709 5713 5716 5719 5721 5723 5724 5725 5726 5726 5726 5727 5727 5728 5728 5728 5728 5728 5727 5727 5726 5725 5724 5722 5721 5719 5717 5716 5714 5712